Cody, WY

5:58 AM MDT on July 23, 2017 (GMT -0600)
Yellowstone Regional

Weather History for KCOD - January, 2011

Change the Weather History Date:

Wednesday, January 5, 2011

  Actual Average Record
Temperature  
Mean Temperature 34 °F -  
Max Temperature 37 °F 31 °F 63 °F (1927)
Min Temperature 30 °F 11 °F -22 °F (1979)
Degree Days  
Heating Degree Days 32    
Moisture  
Dew Point 14 °F    
Average Humidity 42    
Maximum Humidity 47    
Minimum Humidity 41    
Precipitation  
Precipitation 0.00 in - - ()
Sea Level Pressure  
Sea Level Pressure 29.94 in    
Wind  
Wind Speed 23 mph (WSW)    
Max Wind Speed 30 mph    
Max Gust Speed 44 mph    
Visibility 10 miles    
Events      
Averages and records for this station are not official NWS values.
T = Trace of Precipitation, MM = Missing Value Source: NWS Daily Summary

Daily Weather History Graph

Daily Weather History Graph

Search for Another Location

Airport or City:

Trip Planner

Search our weather history database for the weather conditions in past years. The results will help you decide how hot, cold, wet, or windy it might be!

Date:

Astronomy

Jan. 05, 2011 Rise Set
Actual Time 7:52 AM MST 4:50 PM MST
Civil Twilight 7:19 AM MST 5:23 PM MST
Nautical Twilight 6:42 AM MST 6:00 PM MST
Astronomical Twilight 6:07 AM MST 6:35 PM MST
Moon 8:36 AM MST (1/5) 6:33 PM MST (1/5)
Length of Visible Light 10h 04m
Length of Day
8h 58m
New Moon, 2% of the Moon is Illuminated
Jan 5
New Moon
Jan 12
First Quarter
Jan 19
Full
Jan 26
Last Quarter
Feb 2
New

Hourly Weather History & Observations

Time (MST) Temp. Windchill Dew Point Humidity Pressure Visibility Wind Dir Wind Speed Gust Speed Precip Events Conditions
12:15 AM 30.2 °F 15.4 °F 10.4 °F 44% 29.85 in 10.0 mi WSW 28.8 mph 41.4 mph N/A   Overcast
12:35 AM 30.2 °F 15.9 °F 10.4 °F 44% 29.84 in 10.0 mi WSW 26.5 mph 35.7 mph N/A   Overcast
12:55 AM 30.2 °F 15.9 °F 10.4 °F 44% 29.85 in 10.0 mi WSW 26.5 mph 40.3 mph N/A   Overcast
1:35 AM 30.2 °F 15.9 °F 12.2 °F 47% 29.86 in 10.0 mi SW 26.5 mph 40.3 mph N/A   Overcast
1:55 AM 30.2 °F 17.1 °F 12.2 °F 47% 29.86 in 10.0 mi SW 21.9 mph 35.7 mph N/A   Overcast
2:15 AM 30.2 °F 16.8 °F 12.2 °F 47% 29.86 in 10.0 mi WSW 23.0 mph 36.8 mph N/A   Overcast
2:35 AM 30.2 °F 18.1 °F 12.2 °F 47% 29.86 in 10.0 mi WSW 18.4 mph 34.5 mph N/A   Scattered Clouds
2:55 AM 32.0 °F 19.5 °F 12.2 °F 44% 29.87 in 10.0 mi WSW 21.9 mph 39.1 mph N/A   Partly Cloudy
3:15 AM 32.0 °F 18.9 °F 12.2 °F 44% 29.87 in 10.0 mi WSW 24.2 mph 29.9 mph N/A   Clear
3:35 AM 33.8 °F 21.3 °F 12.2 °F 41% 29.87 in 10.0 mi WSW 24.2 mph 34.5 mph N/A   Clear
3:55 AM 33.8 °F 20.8 °F 12.2 °F 41% 29.87 in 10.0 mi WSW 26.5 mph 38.0 mph N/A   Clear
4:15 AM 33.8 °F 22.5 °F 12.2 °F 41% 29.87 in 10.0 mi WSW 19.6 mph 36.8 mph N/A   Scattered Clouds
4:35 AM 33.8 °F 21.6 °F 12.2 °F 41% 29.88 in 10.0 mi WSW 23.0 mph 34.5 mph N/A   Mostly Cloudy
4:55 AM 33.8 °F 21.0 °F 14.0 °F 44% 29.89 in 10.0 mi SW 25.3 mph 36.8 mph N/A   Overcast
5:15 AM 33.8 °F 21.3 °F 14.0 °F 44% 29.88 in 10.0 mi SW 24.2 mph 34.5 mph N/A   Overcast
5:35 AM 33.8 °F 22.2 °F 12.2 °F 41% 29.89 in 10.0 mi SSW 20.7 mph 31.1 mph N/A   Overcast
5:55 AM 33.8 °F 22.5 °F 12.2 °F 41% 29.90 in 10.0 mi WSW 19.6 mph 28.8 mph N/A   Overcast
6:15 AM 33.8 °F 24.3 °F 12.2 °F 41% 29.92 in 10.0 mi West 13.8 mph 27.6 mph N/A   Overcast
6:35 AM 33.8 °F 23.5 °F 12.2 °F 41% 29.92 in 10.0 mi West 16.1 mph 28.8 mph N/A   Overcast
6:55 AM 33.8 °F 21.6 °F 12.2 °F 41% 29.91 in 10.0 mi WSW 23.0 mph 34.5 mph N/A   Overcast
7:15 AM 33.8 °F 21.9 °F 12.2 °F 41% 29.91 in 10.0 mi WSW 21.9 mph 33.4 mph N/A   Overcast
7:35 AM 33.8 °F 23.9 °F 12.2 °F 41% 29.92 in 10.0 mi WSW 15.0 mph 28.8 mph N/A   Overcast
7:55 AM 33.8 °F 21.6 °F 12.2 °F 41% 29.93 in 10.0 mi WSW 23.0 mph 40.3 mph N/A   Overcast
8:15 AM 32.0 °F 22.5 °F 12.2 °F 44% 29.94 in 10.0 mi West 12.7 mph 31.1 mph N/A   Overcast
8:35 AM 33.8 °F 21.9 °F 12.2 °F 41% 29.94 in 10.0 mi WSW 21.9 mph 36.8 mph N/A   Overcast
8:55 AM 33.8 °F 21.6 °F 12.2 °F 41% 29.95 in 10.0 mi WSW 23.0 mph 41.4 mph N/A   Overcast
9:15 AM 32.0 °F 19.8 °F 12.2 °F 44% 29.96 in 10.0 mi WSW 20.7 mph 29.9 mph N/A   Mostly Cloudy
9:35 AM 32.0 °F 19.5 °F 12.2 °F 44% 29.96 in 10.0 mi WSW 21.9 mph 34.5 mph N/A   Scattered Clouds
9:55 AM 32.0 °F 18.9 °F 12.2 °F 44% 29.97 in 10.0 mi WSW 24.2 mph 34.5 mph N/A   Clear
10:15 AM 33.8 °F 21.9 °F 14.0 °F 44% 29.98 in 10.0 mi SW 21.9 mph 31.1 mph N/A   Clear
10:35 AM 35.6 °F 25.9 °F 14.0 °F 41% 29.99 in 10.0 mi WSW 16.1 mph 25.3 mph N/A   Clear
10:55 AM 35.6 °F 24.8 °F 14.0 °F 41% 29.99 in 10.0 mi WSW 19.6 mph 26.5 mph N/A   Clear
11:15 AM 35.6 °F 25.2 °F 14.0 °F 41% 29.99 in 10.0 mi WSW 18.4 mph 32.2 mph N/A   Clear
11:35 AM 37.4 °F 29.3 °F 15.8 °F 41% 29.98 in 10.0 mi WSW 12.7 mph 21.9 mph N/A   Clear
11:55 AM 37.4 °F 28.2 °F 15.8 °F 41% 29.99 in 10.0 mi WSW 16.1 mph 28.8 mph N/A   Clear
12:15 PM 37.4 °F 26.6 °F 15.8 °F 41% 29.97 in 10.0 mi WSW 21.9 mph 31.1 mph N/A   Clear
12:35 PM 37.4 °F 26.4 °F 15.8 °F 41% 29.98 in 10.0 mi WSW 23.0 mph 32.2 mph N/A   Clear
12:55 PM 37.4 °F 27.2 °F 15.8 °F 41% 29.98 in 10.0 mi WSW 19.6 mph 35.7 mph N/A   Clear
1:35 PM 37.4 °F 25.9 °F 15.8 °F 41% 29.99 in 10.0 mi WSW 25.3 mph 41.4 mph N/A   Clear
1:55 PM 37.4 °F 25.6 °F 15.8 °F 41% 30.00 in 10.0 mi WSW 26.5 mph 41.4 mph N/A   Clear
2:15 PM 37.4 °F 25.4 °F 15.8 °F 41% 30.00 in 10.0 mi WSW 27.6 mph 40.3 mph N/A   Clear
2:35 PM 37.4 °F 25.2 °F 15.8 °F 41% 30.00 in 10.0 mi WSW 28.8 mph 41.4 mph N/A   Clear
2:55 PM 37.4 °F 25.6 °F 15.8 °F 41% 30.00 in 10.0 mi WSW 26.5 mph 43.7 mph N/A   Clear
3:15 PM 37.4 °F 26.4 °F 15.8 °F 41% 30.01 in 10.0 mi WSW 23.0 mph 38.0 mph N/A   Clear
3:35 PM 37.4 °F 26.6 °F 15.8 °F 41% 30.02 in 10.0 mi WSW 21.9 mph 39.1 mph N/A   Clear
3:55 PM 35.6 °F 23.4 °F 15.8 °F 44% 30.01 in 10.0 mi SW 25.3 mph 43.7 mph N/A   Clear
4:15 PM 35.6 °F 22.5 °F 15.8 °F 44% 30.01 in 10.0 mi WSW 29.9 mph 36.8 mph N/A   Clear
4:35 PM 37.4 °F 26.1 °F 15.8 °F 41% 30.01 in 10.0 mi SW 24.2 mph 35.7 mph N/A   Clear
4:55 PM 37.4 °F 25.6 °F 15.8 °F 41% 30.02 in 10.0 mi WSW 26.5 mph 41.4 mph N/A   Clear
5:15 PM 37.4 °F 27.2 °F 15.8 °F 41% 30.02 in 10.0 mi WSW 19.6 mph 40.3 mph N/A   Clear
5:35 PM 37.4 °F 27.8 °F 15.8 °F 41% 30.02 in 10.0 mi WSW 17.3 mph 35.7 mph N/A   Clear
5:55 PM 37.4 °F 26.9 °F 15.8 °F 41% 30.03 in 10.0 mi WSW 20.7 mph 33.4 mph N/A   Clear
6:15 PM 37.4 °F 26.9 °F 17.6 °F 45% 30.04 in 10.0 mi West 20.7 mph 35.7 mph N/A   Partly Cloudy
6:35 PM 37.4 °F 28.9 °F 17.6 °F 45% 30.04 in 10.0 mi WSW 13.8 mph 33.4 mph N/A   Mostly Cloudy
6:55 PM 37.4 °F 28.9 °F 17.6 °F 45% 30.03 in 10.0 mi WSW 13.8 mph 32.2 mph N/A   Overcast
7:35 PM 39.2 °F 28.5 °F 17.6 °F 42% 30.03 in 10.0 mi WSW 24.2 mph 33.4 mph N/A   Scattered Clouds
7:55 PM 39.2 °F 28.7 °F 17.6 °F 42% 30.03 in 10.0 mi West 23.0 mph 36.8 mph N/A   Mostly Cloudy
8:15 PM 37.4 °F 26.4 °F 19.4 °F 48% 30.03 in 10.0 mi WSW 23.0 mph 33.4 mph N/A   Overcast
8:35 PM 37.4 °F 28.2 °F 19.4 °F 48% 30.05 in 10.0 mi West 16.1 mph 29.9 mph N/A   Mostly Cloudy
8:55 PM 37.4 °F 26.4 °F 19.4 °F 48% 30.04 in 10.0 mi WSW 23.0 mph 29.9 mph N/A   Scattered Clouds
9:15 PM 37.4 °F 26.6 °F 19.4 °F 48% 30.02 in 10.0 mi WSW 21.9 mph 31.1 mph N/A   Clear
9:35 PM 37.4 °F 26.9 °F 19.4 °F 48% 30.02 in 10.0 mi WSW 20.7 mph 36.8 mph N/A   Clear
9:55 PM 39.2 °F 28.5 °F 19.4 °F 45% 30.02 in 10.0 mi WSW 24.2 mph 35.7 mph N/A   Partly Cloudy
10:15 PM 39.2 °F 28.7 °F 21.2 °F 49% 30.02 in 10.0 mi WSW 23.0 mph 32.2 mph N/A   Scattered Clouds
10:35 PM 39.2 °F 29.8 °F 19.4 °F 45% 30.03 in 10.0 mi WSW 18.4 mph 29.9 mph N/A   Scattered Clouds
10:55 PM 39.2 °F 27.8 °F 19.4 °F 45% 30.03 in 10.0 mi WSW 27.6 mph 36.8 mph N/A   Scattered Clouds
11:35 PM 39.2 °F 29.3 °F 19.4 °F 45% 30.02 in 10.0 mi WSW 20.7 mph 33.4 mph N/A   Partly Cloudy
11:55 PM 39.2 °F 30.5 °F 19.4 °F 45% 30.02 in 10.0 mi WSW 16.1 mph 39.1 mph N/A   Clear